User: anonymous   Login
Location: Newark
(45.5167°N, 11.1667°E)
Time: 16:10:04
(UTC+00:00)
Language:

Explorer 11/Cluster Stage 4 - Orbit

View from above orbital plane
View from above orbital plane
View from above satellite
View from above satellite

Ground track
Ground track

The orbit data is extracted from the following two-line orbital elements,

1   107U 61013A   19347.83582223  .00000515  00000-0  47314-4 0  9990
2   107  28.7873 155.3440 0547059 192.0008 166.7041 14.08876004939438
Epoch (UTC): 13 December 2019 20:03:35
Eccentricity: 0.0547059
inclination: 28.7873°
perigee height: 467 km
apogee height: 1259 km
right ascension of ascending node: 155.3440°
argument of perigee: 192.0008°
revolutions per day: 14.08876004
mean anomaly at epoch: 166.7041°
orbit number at epoch: 93943

The dashed part of the orbit path shows where the satellite is in the earth's shadow,  

DLR